DW5678 Weather Reports


time (UTC)temp
C
wind
direction
speed
KPH
gust
KPH
rain 1hr
cm
rain 24hr
cm
rain mn
cm
humidity
%
barometer
mb
20260906063805 26 19 1.6 4.8 0.00 0.00 0.00 52 1017.2
20260906062805 26 19 1.6 4.8 0.00 0.00 0.00 55 1017.2
20260906061805 26 19 0.0 3.2 0.00 0.00 0.00 54 1017.1
20260906055805 25 19 1.6 3.2 0.00 0.00 0.00 56 1016.9
20260906054805 25 19 1.6 3.2 0.00 0.00 0.00 56 1016.9
20260906053805 25 19 0.0 4.8 0.00 0.00 0.00 55 1016.8
20260906051805 24 19 3.2 9.7 0.00 0.00 0.00 57 1016.7
20260906050805 24 21 0.0 4.8 0.00 0.00 0.00 58 1016.6
20260906045805 23 21 0.0 4.8 0.00 0.00 0.00 59 1016.4
20260906042805 23 22 0.0 9.7 0.00 0.00 0.00 58 1016.2
20260906040805 23 50 3.2 9.7 0.00 0.00 0.00 58 1016.2
20260906035805 23 9 0.0 1.6 0.00 0.00 0.00 61 1016.2
20260906034805 23 9 0.0 11.3 0.00 0.00 0.00 60 1016.1
20260906033805 22 7 8.0 16.1 0.00 0.00 0.00 60 1016.1
20260906032805 22 357 8.0 16.1 0.00 0.00 0.00 60 1016.2
20260906031805 23 351 0.0 9.7 0.00 0.00 0.00 60 1016.1
20260906030805 22 0 6.4 12.9 0.00 0.00 0.00 59 1016.0
20260906025805 22 31 4.8 11.3 0.00 0.00 0.00 61 1015.8
20260906024805 22 154 0.0 3.2 0.00 0.00 0.00 60 1015.8
20260906023805 22 124 4.8 9.7 0.00 0.00 0.00 58 1015.7
20260906020804 22 0 4.8 8.0 0.00 0.00 0.00 59 1015.6
20260906015804 23 217 0.0 3.2 0.00 0.00 0.00 59 1015.7
20260906014804 23 217 1.6 9.7 0.00 0.00 0.00 58 1015.7
20260906013805 23 244 0.0 4.8 0.00 0.00 0.00 59 1015.6
20260906012804 23 244 0.0 8.0 0.00 0.00 0.00 58 1015.5
20260906011804 23 251 1.6 4.8 0.00 0.00 0.00 58 1015.5
20260906010804 23 292 0.0 4.8 0.00 0.00 0.00 58 1015.5
20260906005804 23 292 0.0 4.8 0.00 0.00 0.00 58 1015.5
20260906004804 23 292 1.6 4.8 0.00 0.00 0.00 58 1015.5
20260906003804 22 292 1.6 8.0 0.00 0.00 0.00 59 1015.5
20260906001804 22 261 0.0 9.7 0.00 0.00 0.00 59 1015.7
20260906000804 22 263 3.2 11.3 0.00 0.00 0.00 59 1015.7
20260905235804 23 250 4.8 9.7 0.00 0.00 0.00 58 1015.7
20260905234805 23 250 8.0 12.9 0.00 0.00 0.00 56 1015.8
20260905233804 24 240 0.0 4.8 0.00 0.00 0.00 54 1015.6
20260905232804 24 240 0.0 4.8 0.00 0.00 0.00 54 1015.7
20260905231804 24 240 1.6 4.8 0.00 0.00 0.00 54 1015.8
20260905230804 25 240 0.0 3.2 0.00 0.00 0.00 54 1015.9
20260905225805 25 240 0.0 3.2 0.00 0.00 0.00 54 1016.0
20260905223805 25 240 0.0 4.8 0.00 0.00 0.00 54 1015.9
20260905222806 25 240 1.6 4.8 0.00 0.00 0.00 54 1016.0
20260905221805 25 240 0.0 8.0 0.00 0.00 0.00 52 1015.8
20260905220805 25 240 3.2 8.0 0.00 0.00 0.00 52 1015.8
20260905215806 26 240 0.0 0.0 0.00 0.00 0.00 52 1015.9
20260905214805 26 240 1.6 3.2 0.00 0.00 0.00 52 1016.0
20260905213805 26 240 0.0 3.2 0.00 0.00 0.00 51 1016.0
20260905212805 26 240 1.6 4.8 0.00 0.00 0.00 52 1016.1
20260905211805 26 240 0.0 1.6 0.00 0.00 0.00 51 1016.2
20260905210817 26 240 0.0 1.6 0.00 0.00 0.00 50 1016.2
20260905204805 26 240 0.0 0.0 0.00 0.00 0.00 50 1016.4
20260905202805 26 240 0.0 1.6 0.00 0.00 0.00 49 1016.4
20260905201805 26 240 0.0 0.0 0.00 0.00 0.00 48 1016.4
20260905200806 26 240 0.0 0.0 0.00 0.00 0.00 47 1016.4
20260905195805 26 240 0.0 1.6 0.00 0.00 0.00 48 1016.5
20260905194805 27 240 0.0 0.0 0.00 0.00 0.00 47 1016.5
20260905193806 27 240 0.0 0.0 0.00 0.00 0.00 47 1016.4
20260905191805 27 240 0.0 1.6 0.00 0.00 0.00 45 1016.4
20260905190805 27 240 0.0 0.0 0.00 0.00 0.00 44 1016.5
20260905185805 27 240 0.0 0.0 0.00 0.00 0.00 44 1016.5
20260905184806 27 240 0.0 1.6 0.00 0.00 0.00 46 1016.5
20260905183806 27 240 0.0 1.6 0.00 0.00 0.00 46 1016.5
20260905182805 27 240 0.0 0.0 0.00 0.00 0.00 48 1016.4
20260905181806 27 240 0.0 0.0 0.00 0.00 0.00 48 1016.3
20260905180806 26 240 0.0 0.0 0.00 0.00 0.00 51 1016.3
20260905175805 26 240 0.0 0.0 0.00 0.00 0.00 55 1016.4
20260905174805 27 240 0.0 0.0 0.00 0.00 0.00 61 1016.3
20260905173805 26 240 0.0 0.0 0.00 0.00 0.00 61 1016.2
20260905172805 27 240 0.0 0.0 0.00 0.00 0.00 58 1016.1
20260905171805 27 240 0.0 0.0 0.00 0.00 0.00 54 1016.0
20260905170805 27 240 0.0 0.0 0.00 0.00 0.00 54 1016.0
20260905165805 27 240 0.0 1.6 0.00 0.00 0.00 57 1015.9
20260905164805 27 240 0.0 4.8 0.00 0.00 0.00 64 1015.9
20260905163805 27 240 0.0 4.8 0.00 0.00 0.00 68 1015.9
20260905162805 27 240 0.0 3.2 0.00 0.00 0.00 68 1015.9
20260905161805 27 240 0.0 3.2 0.00 0.00 0.00 69 1016.0
20260905160805 26 240 0.0 4.8 0.00 0.00 0.00 71 1016.0
20260905155805 26 240 3.2 8.0 0.00 0.00 0.00 75 1016.1
20260905153805 27 240 1.6 8.0 0.00 0.00 0.00 73 1016.1
20260905151813 27 240 0.0 8.0 0.00 0.00 0.00 66 1016.1
20260905150806 27 240 1.6 8.0 0.00 0.00 0.00 66 1016.1
20260905145805 28 240 0.0 8.0 0.00 0.00 0.00 67 1016.1
20260905144805 28 240 0.0 8.0 0.00 0.00 0.00 66 1016.1
20260905142805 28 241 3.2 11.3 0.00 0.00 0.00 65 1016.2
20260905141805 28 244 3.2 9.7 0.00 0.00 0.00 62 1016.3
20260905140805 28 245 3.2 11.3 0.00 0.00 0.00 63 1016.3
20260905135805 28 216 1.6 11.3 0.00 0.00 0.00 64 1016.4
20260905134805 28 225 9.7 14.5 0.00 0.00 0.00 62 1016.4
20260905133805 28 208 4.8 14.5 0.00 0.00 0.00 65 1016.4
20260905132805 28 209 4.8 12.9 0.00 0.00 0.00 67 1016.6
20260905131805 29 197 4.8 12.9 0.00 0.00 0.00 62 1016.5
20260905130805 29 228 8.0 14.5 0.00 0.00 0.00 59 1016.6
20260905124805 29 194 4.8 12.9 0.00 0.00 0.00 57 1016.7
20260905123805 29 211 4.8 12.9 0.00 0.00 0.00 54 1016.7
20260905122805 29 210 4.8 12.9 0.00 0.00 0.00 61 1016.8
20260905121804 28 209 8.0 12.9 0.00 0.00 0.00 64 1016.9
20260905115805 28 212 3.2 12.9 0.00 0.00 0.00 60 1017.2
20260905114805 29 223 4.8 14.5 0.00 0.00 0.00 62 1017.3
20260905113805 28 226 4.8 16.1 0.00 0.00 0.00 63 1017.3
20260905111805 29 217 4.8 11.3 0.00 0.00 0.00 58 1017.3
20260905110805 29 175 3.2 11.3 0.00 0.00 0.00 51 1017.3
20260905105806 28 228 6.4 12.9 0.00 0.00 0.00 56 1017.4
20260905104805 29 238 4.8 9.7 0.00 0.00 0.00 57 1017.4
20260905103805 28 238 1.6 9.7 0.00 0.00 0.00 58 1017.5
20260905102805 28 188 3.2 11.3 0.00 0.00 0.00 59 1017.6
20260905101805 28 208 3.2 9.7 0.00 0.00 0.00 56 1017.7
20260905100805 28 227 8.0 11.3 0.00 0.00 0.00 57 1017.8
20260905095805 28 246 3.2 12.9 0.00 0.00 0.00 54 1017.8
20260905094805 29 232 3.2 11.3 0.00 0.00 0.00 54 1017.9
20260905092805 30 199 9.7 19.3 0.00 0.00 0.00 45 1018.0
20260905091805 30 146 3.2 16.1 0.00 0.00 0.00 44 1018.1
20260905090805 29 248 8.0 19.3 0.00 0.00 0.00 43 1018.1
20260905085805 30 246 8.0 16.1 0.00 0.00 0.00 42 1018.1
20260905084804 29 287 8.0 16.1 0.00 0.00 0.00 40 1018.1
20260905083805 29 273 8.0 20.9 0.00 0.00 0.00 42 1018.1
20260905082804 28 300 6.4 16.1 0.00 0.00 0.00 43 1018.2
20260905081805 28 283 4.8 11.3 0.00 0.00 0.00 44 1018.2
20260905080805 28 103 3.2 11.3 0.00 0.00 0.00 47 1018.2
20260905075805 29 10 6.4 14.5 0.00 0.00 0.00 39 1018.1
20260905074805 28 297 4.8 19.3 0.00 0.00 0.00 42 1018.0
20260905073805 28 359 8.0 24.1 0.00 0.00 0.00 43 1018.0
20260905072804 28 319 11.3 24.1 0.00 0.00 0.00 43 1018.1
20260905070804 27 33 9.7 25.7 0.00 0.00 0.00 43 1018.0
20260905065804 27 351 11.3 27.4 0.00 0.00 0.00 44 1018.0